Location: *
(53.9002°N, 27.5624°E)
Time: 03:16:02
(UTC+00:00)

Cosmos 2297 Rocket - Pass Details

Date: 12 November 2019
Orbit: 839 x 843 km, 71.0° (Epoch: 08 December)

Event Time Altitude Azimuth Distance (km) Brightness Sun altitude
Rises 15:55:21 0° 327° (NNW) 3,410 5.7 -14.5°
Reaches altitude 10° 15:57:48 10° 328° (NNW) 2,472 4.9 -14.8°
Maximum altitude 16:03:29 88° 54° (NE) 851 2.2 -15.6°
Drops below altitude 10° 16:09:09 10° 149° (SSE) 2,459 4.4 -16.5°
Sets 16:11:35 0° 149° (SSE) 3,390 5.1 -16.8°
